Location: Unspecified
(52.4292°N, 19.3359°E)
Time: 15:25:55
(UTC+01:00)

A-11 Canister half - Pass Details

Date: 21 October 2025
Orbit: 1526 x 1682 km, 47.3° (Epoch: 13 November)

Event Time Altitude Azimuth Distance (km) Brightness Sun altitude
Exits shadow 05:12:58 29° 257° (WSW) 2,535 9.5 -19.8°
Maximum altitude 05:18:13 64° 187° (S) 1,667 9.1 -19.0°
Drops below altitude 10° 05:27:23 10° 109° (ESE) 3,713 12.0 -17.6°
Sets 05:30:29 0° 106° (ESE) 4,708 12.9 -17.2°
